Onweer van: 25-07-2021 11:00 tot: 20:00 waarschuwing voor: Onweer niveau: Geel info button


waarschuwing voor Onweer Meer informatie blitzortung!


Regen radar Meer informatie rain snow radar


Bezoek onze andere website:

Template documentation
and downloads

And another site



15 daagse weersverwachting Zürich (CH)

  • Overzicht
  • Per uur
  • 15 dagen
  • Extra
  • Vergelijk
  • Kaarten
  • Dagkaart
  • Meer »
  • Info
  • Statistieken
  • Directe link
    Temp 6h Neerslag Wind  
 05:58     21:08    Daglengte: 15:10 Vandaag
08:00
18°
7.9 mm
1
14:00
20°
25.0 mm
2
20:00
21°
8.3 mm
1
 05:59     21:07    Daglengte: 15:08 Morgen
02:00
16°
 
0
08:00
17°
 
1
14:00
23°
13.1 mm
2
20:00
21°
8.6 mm
2
 06:00     21:05    Daglengte: 15:05 Dinsdag 27 Jul
02:00
16°
21.5 mm
1
08:00
17°
 
1
14:00
24°
 
2
20:00
20°
7.5 mm
3
 06:01     21:04    Daglengte: 15:03 Woensdag 28 Jul
02:00
17°
52.5 mm
1
Locatie info
Region: Zürich
Latitude: 47.3771°N
Longitude: 8.5396°E
429 masl
Postcode: 8001
Temp/Neerslag /Baro Onweer/Dauwpunt
    Temp Baro 1h Neerslag Dauwpunt Wind UV Bewolking  
 05:58     21:08    Daglengte: 15:10 Vandaag
06:00
18°
1010.4 hPa
48%
16.7°
1
Windvlaag: 1.5 m/s
86%
07:00
18°
1010.6 hPa 3.9 mm
82%
16.8°
1
Windvlaag: 1.1 m/s
85%
08:00
18°
1010.7 hPa 3.9 mm
82%
16.8°
1
Windvlaag: 1 m/s
84%
09:00
18°
1010.7 hPa 4.4 mm
82%
17.0°
1
Windvlaag: 0.9 m/s
84% warningclass
10:00
18°
1010.8 hPa 4.6 mm
82%
16.9°
1
Windvlaag: 0.6 m/s
83% warningclass
11:00
19°
1011.0 hPa 4.0 mm
82%
16.8°
1
Windvlaag: -0.5 m/s
83% warningclass
12:00
20°
1011.0 hPa 3.9 mm
82%
17.2°
2
Windvlaag: -0.1 m/s
86%
13:00
20°
1011.0 hPa 4.2 mm
81%
16.9°
2
Windvlaag: 0.5 m/s
68%
14:00
20°
1010.8 hPa 3.8 mm
71%
16.8°
2
Windvlaag: 1.2 m/s
66%
15:00
21°
1010.6 hPa
72%
15.5°
2
Windvlaag: 1.5 m/s
66%
16:00
21°
1010.7 hPa 4.2 mm
77%
15.3°
2
Windvlaag: 2.9 m/s
57%
17:00
21°
1010.7 hPa 4.1 mm
81%
17.1°
2
Windvlaag: 2.7 m/s
52%
18:00
21°
1010.6 hPa
82%
15.5°
1
Windvlaag: 3.7 m/s
48%
19:00
21°
1010.7 hPa
75%
14.3°
2
Windvlaag: 2.1 m/s
31%
20:00
21°
1011.0 hPa
74%
14.8°
1
Windvlaag: 1.7 m/s
30%
21:00
20°
1011.4 hPa
18%
16.2°
1
Windvlaag: 1.8 m/s
40%
22:00
19°
1012.0 hPa
14%
16.5°
1
Windvlaag: 1.4 m/s
44%
23:00
18°
1012.3 hPa
15%
16.5°
1
Windvlaag: 1.2 m/s
37%
 05:59     21:07    Daglengte: 15:08 Morgen
00:00
17°
1012.6 hPa
15%
16.4°
0
Windvlaag: 0.6 m/s
67%
01:00
17°
1012.5 hPa
20%
15.9°
1
Windvlaag: 0.3 m/s
71%
02:00
16°
1012.4 hPa
26%
15.8°
0
Windvlaag: 0.3 m/s
82%
03:00
16°
1012.5 hPa
66%
15.7°
1
Windvlaag: 1.1 m/s
71%
04:00
16°
1012.5 hPa
16%
15.5°
1
Windvlaag: 1.6 m/s
84%
05:00
16°
1012.6 hPa
17%
15.5°
1
Windvlaag: 0.9 m/s
73%
06:00
16°
1013.0 hPa
15%
15.5°
1
Windvlaag: 1.1 m/s
58%
07:00
16°
1013.1 hPa
14%
15.9°
1
Windvlaag: 1.2 m/s
76%
08:00
17°
1013.4 hPa
24%
16.0°
1
Windvlaag: 1.7 m/s
60%
09:00
19°
1013.5 hPa
35%
16.2°
1
Windvlaag: 1.6 m/s
57%
10:00
19°
1013.7 hPa 4.8 mm
82%
15.7°
1
Windvlaag: 1.6 m/s
48% warningclass
11:00
20°
1014.0 hPa
82%
15.2°
2
Windvlaag: 0 m/s
48% warningclass
12:00
21°
1014.0 hPa 4.2 mm
82%
14.7°
2
Windvlaag: 0.3 m/s
64%
13:00
22°
1013.8 hPa 4.1 mm
77%
13.9°
2
Windvlaag: 1.7 m/s
62%
14:00
23°
1013.4 hPa
81%
13.7°
2
Windvlaag: 1.5 m/s
49%
15:00
23°
1013.2 hPa 4.3 mm
82%
14.1°
2
Windvlaag: 0.6 m/s
68%
16:00
23°
1013.2 hPa 4.3 mm
82%
14.5°
2
Windvlaag: 0.4 m/s
46%
17:00
23°
1013.2 hPa
82%
16.8°
2
Windvlaag: -0.2 m/s
70%
18:00
22°
1013.3 hPa
78%
16.9°
1
Windvlaag: 0.1 m/s
48%
19:00
22°
1013.3 hPa
78%
17.3°
2
Windvlaag: 2.5 m/s
52%
20:00
21°
1013.7 hPa
30%
17.5°
2
Windvlaag: 2.5 m/s
33%
21:00
20°
1014.0 hPa
22%
17.3°
1
Windvlaag: 2.9 m/s
43%
22:00
19°
1014.8 hPa
14%
17.2°
1
Windvlaag: 3.5 m/s
45%
23:00
18°
1015.4 hPa 7.4 mm
21%
15.3°
1
Windvlaag: 2.7 m/s
61%
 06:00     21:05    Daglengte: 15:05 Dinsdag 27 Jul
00:00
18°
1015.6 hPa 7.1 mm
21%
15.2°
1
Windvlaag: 1.2 m/s
62%
01:00
17°
1015.6 hPa 7.0 mm
21%
14.5°
1
Windvlaag: 0.8 m/s
53%
02:00
16°
1015.6 hPa
21%
13.9°
1
Windvlaag: 1.5 m/s
60%
03:00
16°
1015.5 hPa
21%
13.8°
1
Windvlaag: 1.7 m/s
59%
04:00
16°
1015.6 hPa
21%
13.4°
1
Windvlaag: 1.7 m/s
35%
05:00
15°
1015.7 hPa
21%
13.0°
1
Windvlaag: 1.8 m/s
59%
06:00
15°
1015.7 hPa
21%
12.7°
1
Windvlaag: 1.5 m/s
63%
07:00
16°
1015.8 hPa
21%
12.8°
1
Windvlaag: 1.5 m/s
71%
08:00
17°
1015.7 hPa
21%
13.3°
1
Windvlaag: 1.1 m/s
66%
09:00
18°
1015.9 hPa
21%
13.8°
0
Windvlaag: 1 m/s
10%
10:00
20°
1015.5 hPa
21%
14.6°
1
Windvlaag: 1.7 m/s
12%
11:00
21°
1015.2 hPa
21%
14.9°
1
Windvlaag: 2 m/s
14%
12:00
22°
1014.6 hPa
21%
14.6°
1
Windvlaag: 4.1 m/s
13%
13:00
23°
1014.2 hPa
21%
13.9°
2
Windvlaag: 3.7 m/s
62%
14:00
24°
1013.8 hPa
21%
13.1°
2
Windvlaag: 5.3 m/s
74%
15:00
25°
1013.6 hPa
21%
13.2°
1
Windvlaag: 5.8 m/s
64%
16:00
24°
1013.6 hPa
98%
13.3°
1
Windvlaag: 5.2 m/s
89%
17:00
24°
1013.6 hPa
88%
17.8°
2
Windvlaag: 5.2 m/s
90%
18:00
23°
1013.6 hPa
98%
17.1°
2
Windvlaag: 3.9 m/s
89%
19:00
22°
1013.7 hPa
100%
16.0°
2
Windvlaag: 3.6 m/s
93%
20:00
20°
1014.6 hPa 7.5 mm
100%
15.0°
3
Windvlaag: 3.3 m/s
98%
21:00
19°
1015.3 hPa 8.2 mm
100%
15.0°
1
Windvlaag: 2.2 m/s
99%
22:00
18°
1016.0 hPa 8.1 mm
100%
15.2°
1
Windvlaag: 1.5 m/s
100% warningclass
23:00
18°
1016.0 hPa 8.5 mm
100%
15.5°
1
Windvlaag: 1.3 m/s
100% warningclass
 06:01     21:04    Daglengte: 15:03 Woensdag 28 Jul
00:00
18°
1016.1 hPa 9.7 mm
100%
16.1°
1
Windvlaag: 4.3 m/s
98% warningclass
01:00
18°
1015.7 hPa 8.7 mm
100%
15.7°
1
Windvlaag: 1.1 m/s
97%
02:00
17°
1015.7 hPa 9.4 mm
100%
15.6°
1
Windvlaag: 1.5 m/s
85%
Temp/Neerslag /Baro Onweer/Dauwpunt
    Temp Baro Neerslag Dauwpunt Wind Bewolking  
 05:58     21:08    Daglengte: 15:10 Vandaag
08:00
18°
1010.7 hPa 7.9 mm 16.8°
1
84%
11:00
19°
1011.0 hPa 13.1 mm 16.8°
1
83% warningclass
14:00
20°
1010.8 hPa 12.0 mm 16.8°
2
66%
17:00
21°
1010.7 hPa 8.3 mm 17.1°
2
52%
20:00
21°
1011.0 hPa   14.8°
1
30%
23:00
18°
1012.3 hPa   16.5°
1
37%
 05:59     21:07    Daglengte: 15:08 Morgen
02:00
16°
1012.4 hPa   15.8°
0
82%
05:00
16°
1012.6 hPa   15.5°
1
73%
08:00
17°
1013.4 hPa   16.0°
1
60%
11:00
20°
1014.0 hPa 4.8 mm 15.2°
2
48% warningclass
14:00
23°
1013.4 hPa 8.3 mm 13.7°
2
49%
17:00
23°
1013.2 hPa 8.6 mm 16.8°
2
70%
20:00
21°
1013.7 hPa   17.5°
2
33%
23:00
18°
1015.4 hPa 7.4 mm 15.3°
1
61%
 06:00     21:05    Daglengte: 15:05 Dinsdag 27 Jul
02:00
16°
1015.6 hPa 14.0 mm 13.9°
1
60%
05:00
15°
1015.7 hPa   13.0°
1
59%
08:00
17°
1015.7 hPa   13.3°
1
66%
11:00
21°
1015.2 hPa   14.9°
1
14%
14:00
24°
1013.8 hPa   13.1°
2
74%
17:00
24°
1013.6 hPa   17.8°
2
90%
20:00
20°
1014.6 hPa 7.5 mm 15.0°
3
98%
23:00
18°
1016.0 hPa 24.7 mm 15.5°
1
100% warningclass
 06:01     21:04    Daglengte: 15:03 Woensdag 28 Jul
02:00
17°
1015.7 hPa 27.8 mm 15.6°
1
85%
05:00
16°
1015.9 hPa 39.3 mm 15.6°
0
1%
08:00
16°
1016.8 hPa 42.0 mm 15.2°
1
1%
11:00
18°
1017.3 hPa 42.3 mm 13.0°
1
1%
14:00
22°
1016.7 hPa 42.4 mm 14.8°
1
1%
17:00
23°
1015.8 hPa 42.6 mm 14.5°
1
1%
20:00
20°
1015.9 hPa 42.8 mm 16.5°
1
0%
23:00
16°
1016.8 hPa 42.8 mm 14.3°
0
0%
 06:02     21:03    Daglengte: 15:01 Donderdag 29 Jul
02:00
15°
1016.4 hPa 42.8 mm 13.7°
1
0%
05:00
14°
1015.9 hPa 42.8 mm 13.0°
0
0%
08:00
16°
1015.6 hPa 42.8 mm 14.5°
0
0%
11:00
22°
1014.4 hPa 42.8 mm 16.8°
1
0%
14:00
27°
1013.0 hPa 42.8 mm 15.6°
2
0%
17:00
28°
1011.7 hPa 42.8 mm 16.8°
3
0%
20:00
23°
1012.2 hPa 43.1 mm 19.5°
2
0%
23:00
18°
1013.8 hPa 45.5 mm 17.5°
2
1%
 06:04     21:02    Daglengte: 14:58 Vrijdag 30 Jul
02:00
17°
1014.4 hPa 53.6 mm 16.7°
1
1%
05:00
16°
1014.2 hPa 54.6 mm 16.3°
1
1%
08:00
18°
1014.7 hPa 56.7 mm 17.6°
1
1%
11:00
21°
1014.1 hPa 56.9 mm 17.5°
0
1%
14:00
25°
1011.9 hPa 57.0 mm 17.5°
1
1%
17:00
26°
1010.9 hPa 57.0 mm 18.8°
1
1%
20:00
22°
1011.1 hPa 58.6 mm 19.9°
2
1%
23:00
18°
1012.3 hPa 61.7 mm 17.6°
1
1%
 06:05     21:00    Daglengte: 14:55 Zaterdag 31 Jul
02:00
17°
1012.6 hPa 63.4 mm 16.5°
1
1%
05:00
16°
1012.3 hPa 63.7 mm 15.9°
1
1%
08:00
18°
1012.1 hPa 63.7 mm 17.4°
1
1%
11:00
23°
1012.3 hPa 63.8 mm 17.0°
4
0%
14:00
22°
1013.0 hPa 64.0 mm 14.5°
4
0%
17:00
18°
1013.7 hPa 64.7 mm 16.3°
2
1%
20:00
17°
1014.6 hPa 65.6 mm 15.7°
1
1%
23:00
16°
1016.3 hPa 66.6 mm 14.9°
1
1%
 06:06     20:59    Daglengte: 14:53 Zondag 01 Aug
02:00
15°
1016.8 hPa 66.7 mm 14.0°
2
1%
05:00
14°
1017.2 hPa   12.4°
2
1%
08:00
15°
1017.7 hPa 133.7 mm 13.5°
1
1%
14:00
21°
1016.9 hPa 133.9 mm 12.2°
2
0%
20:00
18°
1017.9 hPa 134.0 mm 12.2°
2
1%
 06:07     20:57    Daglengte: 14:50 Maandag 02 Aug
02:00
13°
1020.7 hPa 134.9 mm 12.5°
1
0%
08:00
15°
1021.3 hPa 135.2 mm 12.5°
1
1%
14:00
23°
1019.3 hPa 135.4 mm 9.0°
2
0%
20:00
18°
1019.0 hPa 135.4 mm 13.5°
1
1%
 06:09     20:56    Daglengte: 14:47 Dinsdag 03 Aug
02:00
13°
1020.3 hPa 135.4 mm 11.7°
1
1%
14:00
23°
1015.7 hPa 203.2 mm 12.7°
2
1%
20:00
17°
1015.0 hPa 136.2 mm 15.2°
2
1%
 06:10     20:55    Daglengte: 14:45 Woensdag 04 Aug
02:00
12°
1015.4 hPa 1.4 mm 10.1°
1
54%
08:00
13°
1015.2 hPa 1.0 mm 10.7°
1
55%
14:00
20°
1014.2 hPa 0.8 mm 10.3°
2
53%
20:00
17°
1014.8 hPa 0.7 mm 11.4°
1
52%
 06:11     20:53    Daglengte: 14:42 Donderdag 05 Aug
02:00
13°
1016.6 hPa 0.4 mm 9.6°
1
48%
08:00
14°
1016.3 hPa 0.4 mm 10.7°
1
54%
14:00
21°
1015.1 hPa 1.0 mm 10.9°
2
56%
20:00
18°
1015.8 hPa 1.4 mm 11.7°
1
56%
 06:12     20:52    Daglengte: 14:40 Vrijdag 06 Aug
02:00
13°
1017.1 hPa 0.7 mm 10.8°
1
60%
08:00
14°
1016.9 hPa 0.4 mm 11.3°
1
56%
14:00
21°
1015.7 hPa 1.5 mm 11.8°
2
57%
20:00
18°
1016.0 hPa 2.6 mm 12.3°
1
52%
 06:14     20:50    Daglengte: 14:36 Zaterdag 07 Aug
02:00
13°
1017.4 hPa 1.8 mm 11.0°
0
59%
08:00
14°
1017.3 hPa 1.9 mm 11.2°
1
60%
14:00
20°
1016.2 hPa 2.3 mm 11.5°
2
60%
20:00
17°
1016.7 hPa 2.0 mm 11.8°
1
59%
 06:15     20:48    Daglengte: 14:33 Zondag 08 Aug
02:00
13°
1018.2 hPa 0.8 mm 10.5°
1
60%
08:00
14°
1018.1 hPa 0.7 mm 11.2°
1
56%
14:00
22°
1016.9 hPa 0.8 mm 10.9°
2
46%
20:00
18°
1017.4 hPa 1.0 mm 12.5°
1
46%
 06:16     20:47    Daglengte: 14:31 Maandag 09 Aug
02:00
14°
1018.7 hPa 1.3 mm 11.4°
1
53%
08:00
15°
1018.6 hPa 0.5 mm 11.9°
1
49%
  CAPE Lifted Index Hail Supercell Tornado SRH 3km CL BTM PRES CL TOP PRES Swiss DWD icon SMHI TS
 05:58     21:08    Daglengte: 15:10 Vandaag
06:00 49 J/kg -0.6 K 0 % 0 % 0 % 0 m²/s² 0 0 -0.33 80
07:00 0 J/kg -0.3 K 0 % 0 % 0 % 0 m²/s² 0 0 -0.03 80
08:00 32 J/kg -0.2 K 0 % 0 % 0 % 0 m²/s² 0 0 -0.2 3
09:00 12 J/kg -0.1 K 0 % 0 % 0 % 0 m²/s² 0 0 0.11 95
10:00 229 J/kg -1.5 K 0 % 0 % 0 % 0 m²/s² 0 0 -1.32 95
11:00 395 J/kg -1.7 K 0 % 0 % 0 % 0 m²/s² 0 0 -1.7 95
12:00 518 J/kg -2.0 K 0 % 0 % 0 % 0 m²/s² 0 0 -1.43 80
13:00 697 J/kg -2.6 K 0 % 0 % 0 % 0 m²/s² 0 0 -1.43 80
14:00 682 J/kg -2.3 K 0 % 0 % 0 % 0 m²/s² 0 0 -0.38 80
15:00 721 J/kg -2.4 K 0 % 0 % 0 % 0 m²/s² 0 0 -1.83 3
16:00 739 J/kg -2.9 K 0 % 0 % 0 % 0 m²/s² 0 0 -1.22 80
17:00 952 J/kg -3.2 K 0 % 0 % 0 % 0 m²/s² 0 0 -1.52 3
18:00 689 J/kg -2.5 K 0 % 0 % 0 % 0 m²/s² 0 0 -0.52 80
19:00 441 J/kg -2.4 K 0 % 0 % 0 % 0 m²/s² 0 0 -0.15 3
20:00 340 J/kg -1.8 K 0 % 0 % 0 % 0 m²/s² 0 0 0.75 3
21:00 399 J/kg -1.7 K 0 % 0 % 0 % 0 m²/s² 0 0 0.4 3
22:00 406 J/kg -1.7 K 0 % 0 % 0 % 0 m²/s² 0 0 0.7 3
23:00 279 J/kg -1.9 K 0 % 0 % 0 % 0 m²/s² 0 0 0.41 3
 05:59     21:07    Daglengte: 15:08 Morgen
00:00 180 J/kg -2.4 K 0 % 0 % 0 % 0 m²/s² 0 0 -0.36 3
01:00 164 J/kg -3.0 K 0 % 0 % 0 % 0 m²/s² 0 0 -0.96 3
02:00 179 J/kg -3.9 K 0 % 0 % 0 % 0 m²/s² 0 0 -2.04 3
03:00 254 J/kg -4.1 K 0 % 0 % 0 % 0 m²/s² 0 0 -2.51 3
04:00 293 J/kg -4.1 K 0 % 0 % 0 % 0 m²/s² 0 0 -2.45 3
05:00 208 J/kg -3.9 K 0 % 0 % 0 % 0 m²/s² 0 0 -1.86 45
06:00 74 J/kg -3.8 K 0 % 0 % 0 % 0 m²/s² 0 0 -1.88 45
07:00 173 J/kg -3.6 K 0 % 0 % 0 % 0 m²/s² 0 0 -1.83 45
08:00 372 J/kg -3.5 K 0 % 0 % 0 % 0 m²/s² 0 0 -1.79 45
09:00 706 J/kg -3.5 K 0 % 0 % 0 % 0 m²/s² 0 0 -1.73 3
10:00 946 J/kg -3.6 K 0 % 0 % 0 % 0 m²/s² 0 0 -1.62 95
11:00 1044 J/kg -3.8 K 0 % 0 % 0 % 0 m²/s² 0 0 -1.76 95
12:00 1139 J/kg -4.2 K 0 % 0 % 0 % 0 m²/s² 0 0 -1.83 3
13:00 1146 J/kg -4.3 K 0 % 0 % 0 % 0 m²/s² 0 0 -1.84 3
14:00 932 J/kg -3.2 K 0 % 0 % 0 % 0 m²/s² 0 0 -0.59 3
15:00 777 J/kg -2.6 K 0 % 0 % 0 % 0 m²/s² 0 0 -0.35 80
16:00 812 J/kg -3.7 K 0 % 0 % 0 % 0 m²/s² 0 0 -1.99 80
17:00 754 J/kg -3.4 K 0 % 0 % 0 % 0 m²/s² 0 0 -1.42 3
18:00 805 J/kg -3.6 K 0 % 0 % 0 % 0 m²/s² 0 0 -1.2 80
19:00 784 J/kg -3.5 K 0 % 0 % 0 % 0 m²/s² 0 0 -1.19 80
20:00 599 J/kg -2.8 K 0 % 0 % 0 % 0 m²/s² 0 0 -0.1 3
21:00 490 J/kg -1.9 K 0 % 0 % 0 % 0 m²/s² 0 0 -0.07 3
22:00 398 J/kg -1.8 K 0 % 0 % 0 % 0 m²/s² 0 0 0.36 3
23:00 280 J/kg -1.9 K 0 % 0 % 0 % 0 m²/s² 0 0 0.68 1
 06:00     21:05    Daglengte: 15:05 Dinsdag 27 Jul
00:00 122 J/kg -1.6 K 0 % 0 % 0 % 0 m²/s² 0 0 2.03 0
01:00 77 J/kg -1.7 K 0 % 0 % 0 % 0 m²/s² 0 0 2.11 0
02:00 0 J/kg -1.5 K 0 % 0 % 0 % 0 m²/s² 0 0 2.43 45
03:00 0 J/kg -1.6 K 0 % 0 % 0 % 0 m²/s² 0 0 2.51 1
04:00 5 J/kg -1.6 K 0 % 0 % 0 % 0 m²/s² 0 0 2.51 45
05:00 3 J/kg -1.8 K 0 % 0 % 0 % 0 m²/s² 0 0 2.22 45
06:00 0 J/kg -1.8 K 0 % 0 % 0 % 0 m²/s² 0 0 2.22 45
07:00 0 J/kg -1.7 K 0 % 0 % 0 % 0 m²/s² 0 0 1.9 45
08:00 0 J/kg -1.9 K 0 % 0 % 0 % 0 m²/s² 0 0 1.16 45
09:00 32 J/kg -1.5 K 0 % 0 % 0 % 0 m²/s² 0 0 0.27 1
10:00 270 J/kg -1.9 K 0 % 0 % 0 % 0 m²/s² 0 0 -0.85 1
11:00 466 J/kg -3.0 K 0 % 0 % 0 % 0 m²/s² 0 0 -2.04 2
12:00 488 J/kg -3.1 K 0 % 0 % 0 % 0 m²/s² 0 0 -1.96 2
13:00 396 J/kg -3.0 K 0 % 0 % 0 % 0 m²/s² 0 0 -1.17 3
14:00 317 J/kg -2.9 K 0 % 0 % 0 % 0 m²/s² 0 0 -0.65 3
15:00 287 J/kg -2.3 K 0 % 0 % 0 % 0 m²/s² 0 0 -0.11 3
16:00 434 J/kg -3.0 K 0 % 0 % 0 % 0 m²/s² 0 0 -1.02 3
17:00 583 J/kg -3.1 K 0 % 0 % 0 % 0 m²/s² 0 0 -1 3
18:00 481 J/kg -2.7 K 0 % 0 % 0 % 0 m²/s² 0 0 -0.87 3
19:00 474 J/kg -2.6 K 0 % 0 % 0 % 0 m²/s² 0 0 -0.83 3
20:00 651 J/kg -2.7 K 0 % 0 % 0 % 0 m²/s² 0 0 -1.23 61
21:00 759 J/kg -2.8 K 0 % 0 % 0 % 0 m²/s² 0 0 -1.33 61
22:00 841 J/kg -3.4 K 0 % 0 % 0 % 0 m²/s² 0 0 -2.08 61
23:00 877 J/kg -3.8 K 0 % 0 % 0 % 0 m²/s² 0 0 -2.54 80
 06:01     21:04    Daglengte: 15:03 Woensdag 28 Jul
00:00 867 J/kg -3.8 K 0 % 0 % 0 % 0 m²/s² 0 0 -2.75 95
01:00 815 J/kg -3.2 K 0 % 0 % 0 % 0 m²/s² 0 0 -1.73 61
02:00 726 J/kg -2.9 K 0 % 0 % 0 % 0 m²/s² 0 0 -1.79 80
Temp Baro Wind Neerslag
  EWN Forecast EWN WRFDA DWD ICON FMI HIRLAM MET Norway GFS
 05:58     21:08    Daglengte: 15:10 Vandaag
08:00 18.0° 1010.7 hPa 1.5 m/s 7.9 mm 17.7° 1009.2 hPa 2.5 m/s 51.7 mm 18.2° 1011.0 hPa 0.9 m/s 0.4 mm 18.0° 1010.8 hPa 2.1 m/s 0.0 mm 16.4° 1011.5 hPa 0.3 m/s
11:00 18.9° 1011.0 hPa 1.5 m/s 13.1 mm 20.7° 1009.4 hPa 0.6 m/s 53.5 mm 18.6° 1011.5 hPa 0.6 m/s 4.6 mm 19.7° 1011.1 hPa 2.2 m/s 0.0 mm 18.7° 1011.2 hPa 0.9 m/s
14:00 20.5° 1010.8 hPa 2.0 m/s 12.0 mm 22.7° 1008.1 hPa 1.2 m/s 53.6 mm 20.7° 1010.7 hPa 1.3 m/s 1.3 mm 20.6° 1011.0 hPa 2.3 m/s 0.0 mm 21.5° 1010.8 hPa 1.7 m/s
17:00 21.4° 1010.7 hPa 1.6 m/s 8.3 mm 22.8° 1008.9 hPa 2.2 m/s 57.4 mm 21.5° 1011.0 hPa 1.2 m/s 0.7 mm 22.5° 1010.4 hPa 3.3 m/s 0.0 mm 22.8° 1010.6 hPa 1.7 m/s
20:00 21.0° 1011.0 hPa 1.4 m/s 0.0 mm 22.1° 1008.8 hPa 1.4 m/s 59.5 mm 20.9° 1011.0 hPa 1.0 m/s 0.4 mm 22.0° 1011.2 hPa 1.6 m/s 0.0 mm 20.0° 1011.3 hPa 0.6 m/s
23:00 18.2° 1012.3 hPa 0.6 m/s 0.0 mm 18.2° 1010.4 hPa 2.3 m/s 59.6 mm 19.0° 1012.2 hPa 0.4 m/s 0.0 mm 18.2° 1013.0 hPa 1.0 m/s 0.0 mm 17.3° 1012.8 hPa 1.2 m/s
 05:59     21:07    Daglengte: 15:08 Morgen
02:00 16.4° 1012.4 hPa 0.4 m/s 0.0 mm 17.2° 1010.6 hPa 1.7 m/s 59.7 mm 18.1° 1012.5 hPa 0.2 m/s 0.0 mm 15.5° 1013.1 hPa 0.2 m/s 0.0 mm 16.1° 1012.9 hPa 0.9 m/s
05:00 16.0° 1012.6 hPa 0.6 m/s 0.0 mm 15.4° 1010.3 hPa 2.3 m/s 59.8 mm 17.3° 1012.4 hPa 0.4 m/s 0.0 mm 14.0° 1013.1 hPa 0.0 m/s 0.0 mm 15.4° 1013.0 hPa 1.0 m/s
08:00 17.1° 1013.4 hPa 0.9 m/s 0.0 mm 18.4° 1011.6 hPa 1.7 m/s 59.8 mm 17.2° 1013.6 hPa 0.3 m/s 0.0 mm 16.8° 1012.8 hPa 0.9 m/s 0.0 mm 16.9° 1013.9 hPa 0.4 m/s
11:00 20.4° 1014.0 hPa 2.0 m/s 4.8 mm 21.8° 1012.3 hPa 2.1 m/s 59.9 mm 19.1° 1014.6 hPa 2.1 m/s 3.7 mm 23.0° 1012.2 hPa 2.5 m/s 0.0 mm 22.4° 1013.5 hPa 0.6 m/s
14:00 22.8° 1013.4 hPa 1.6 m/s 8.3 mm 23.7° 1011.6 hPa 3.5 m/s 60.0 mm 21.0° 1014.2 hPa 2.5 m/s 0.5 mm 26.9° 1011.0 hPa 1.2 m/s 0.0 mm 23.7° 1012.6 hPa 1.4 m/s
17:00 22.8° 1013.2 hPa 1.8 m/s 8.6 mm 24.3° 1012.2 hPa 1.9 m/s 60.0 mm 21.0° 1014.2 hPa 1.8 m/s 1.1 mm 25.1° 1010.7 hPa 2.4 m/s 0.0 mm 21.9° 1013.5 hPa 1.4 m/s
20:00 20.9° 1013.7 hPa 1.6 m/s 0.0 mm 22.4° 1012.1 hPa 2.7 m/s 61.2 mm 19.9° 1014.7 hPa 1.6 m/s 1.4 mm 22.1° 1012.1 hPa 1.7 m/s 0.0 mm 18.9° 1014.9 hPa 1.6 m/s
23:00 18.1° 1015.4 hPa 1.3 m/s 7.4 mm 18.0° 1014.0 hPa 2.9 m/s 61.4 mm 18.1° 1016.1 hPa 0.8 m/s 0.0 mm 16.1° 1016.1 hPa 1.2 m/s
 06:00     21:05    Daglengte: 15:05 Dinsdag 27 Jul
02:00 16.3° 1015.6 hPa 1.3 m/s 14.0 mm 15.5° 1014.0 hPa 2.2 m/s 61.4 mm 16.0° 1015.8 hPa 1.0 m/s 0.0 mm 14.8° 1016.5 hPa 1.3 m/s
05:00 15.2° 1015.7 hPa 1.2 m/s 0.0 mm 14.5° 1014.2 hPa 1.8 m/s 61.4 mm 14.9° 1016.1 hPa 0.2 m/s 0.0 mm 14.0° 1016.4 hPa 0.7 m/s
08:00 17.0° 1015.7 hPa 0.6 m/s 0.0 mm 17.3° 1014.1 hPa 0.3 m/s 61.4 mm 15.4° 1016.3 hPa 0.5 m/s 0.0 mm 16.1° 1016.1 hPa 0.2 m/s
11:00 21.0° 1015.2 hPa 1.0 m/s 0.0 mm 21.6° 1013.9 hPa 0.3 m/s 61.4 mm 20.8° 1015.5 hPa 1.2 m/s 0.0 mm 21.1° 1015.1 hPa 0.5 m/s
14:00 23.8° 1013.8 hPa 1.7 m/s 0.0 mm 24.5° 1013.2 hPa 2.1 m/s 61.4 mm 23.7° 1014.0 hPa 1.7 m/s 0.0 mm 23.2° 1014.2 hPa 0.5 m/s
17:00 23.5° 1013.6 hPa 1.9 m/s 0.0 mm 22.1° 1013.6 hPa 4.3 m/s 62.1 mm 23.9° 1013.6 hPa 1.3 m/s 0.1 mm 22.0° 1014.4 hPa 0.6 m/s
20:00 20.3° 1014.6 hPa 3.0 m/s 7.5 mm 21.7° 1013.3 hPa 2.1 m/s 65.3 mm 20.0° 1014.9 hPa 3.3 m/s 0.3 mm 18.9° 1014.4 hPa 1.3 m/s
23:00 18.0° 1016.0 hPa 0.5 m/s 24.7 mm 19.5° 1014.8 hPa 1.3 m/s 66.6 mm 17.7° 1016.4 hPa 0.4 m/s 3.8 mm 16.4° 1016.6 hPa 1.6 m/s
 06:01     21:04    Daglengte: 15:03 Woensdag 28 Jul
02:00 17.3° 1015.7 hPa 1.0 m/s 27.8 mm 17.1° 1014.9 hPa 1.3 m/s 73.5 mm 17.3° 1015.9 hPa 0.9 m/s 4.9 mm 16.0° 1016.1 hPa 1.1 m/s
05:00 15.8° 1015.9 hPa 0.4 m/s 39.3 mm 15.8° 1015.9 hPa 0.4 m/s 39.3 mm
08:00 15.7° 1016.8 hPa 0.6 m/s 42.0 mm 15.7° 1016.8 hPa 0.6 m/s 42.0 mm
11:00 18.1° 1017.3 hPa 1.0 m/s 42.3 mm 18.1° 1017.3 hPa 1.0 m/s 42.3 mm
14:00 22.1° 1016.7 hPa 1.3 m/s 42.4 mm 22.1° 1016.7 hPa 1.3 m/s 42.4 mm
17:00 23.2° 1015.8 hPa 1.3 m/s 42.6 mm 23.2° 1015.8 hPa 1.3 m/s 42.6 mm
20:00 20.2° 1015.9 hPa 0.7 m/s 42.8 mm 20.2° 1015.9 hPa 0.7 m/s 42.8 mm
23:00 15.8° 1016.8 hPa 0.3 m/s 42.8 mm 15.8° 1016.8 hPa 0.3 m/s 42.8 mm
 06:02     21:03    Daglengte: 15:01 Donderdag 29 Jul
02:00 14.5° 1016.4 hPa 0.7 m/s 42.8 mm 14.5° 1016.4 hPa 0.7 m/s 42.8 mm
05:00 13.5° 1015.9 hPa 0.3 m/s 42.8 mm 13.5° 1015.9 hPa 0.3 m/s 42.8 mm
08:00 16.0° 1015.6 hPa 0.1 m/s 42.8 mm 16.0° 1015.6 hPa 0.1 m/s 42.8 mm
11:00 22.4° 1014.4 hPa 0.6 m/s 42.8 mm 22.4° 1014.4 hPa 0.6 m/s 42.8 mm
14:00 26.5° 1013.0 hPa 2.0 m/s 42.8 mm 26.5° 1013.0 hPa 2.0 m/s 42.8 mm
17:00 28.1° 1011.7 hPa 2.8 m/s 42.8 mm 28.1° 1011.7 hPa 2.8 m/s 42.8 mm
20:00 22.9° 1012.2 hPa 1.7 m/s 43.1 mm 22.9° 1012.2 hPa 1.7 m/s 43.1 mm
23:00 18.0° 1013.8 hPa 1.8 m/s 45.5 mm 18.0° 1013.8 hPa 1.8 m/s 45.5 mm
 06:04     21:02    Daglengte: 14:58 Vrijdag 30 Jul
02:00 17.1° 1014.4 hPa 0.7 m/s 53.6 mm 17.1° 1014.4 hPa 0.7 m/s 53.6 mm
05:00 16.4° 1014.2 hPa 0.8 m/s 54.6 mm 16.4° 1014.2 hPa 0.8 m/s 54.6 mm
08:00 17.9° 1014.7 hPa 0.7 m/s 56.7 mm 17.9° 1014.7 hPa 0.7 m/s 56.7 mm
11:00 21.2° 1014.1 hPa 0.5 m/s 56.9 mm 21.2° 1014.1 hPa 0.5 m/s 56.9 mm
14:00 25.4° 1011.9 hPa 1.2 m/s 57.0 mm 25.4° 1011.9 hPa 1.2 m/s 57.0 mm
17:00 25.8° 1010.9 hPa 1.0 m/s 57.0 mm 25.8° 1010.9 hPa 1.0 m/s 57.0 mm
20:00 21.6° 1011.1 hPa 1.6 m/s 58.6 mm 21.6° 1011.1 hPa 1.6 m/s 58.6 mm
23:00 18.0° 1012.3 hPa 0.8 m/s 61.7 mm 18.0° 1012.3 hPa 0.8 m/s 61.7 mm
 06:05     21:00    Daglengte: 14:55 Zaterdag 31 Jul
02:00 16.8° 1012.6 hPa 0.7 m/s 63.4 mm 16.8° 1012.6 hPa 0.7 m/s 63.4 mm
05:00 16.1° 1012.3 hPa 1.3 m/s 63.7 mm 16.1° 1012.3 hPa 1.3 m/s 63.7 mm
08:00 18.0° 1012.1 hPa 0.8 m/s 63.7 mm 18.0° 1012.1 hPa 0.8 m/s 63.7 mm
11:00 22.7° 1012.3 hPa 4.0 m/s 63.8 mm 22.7° 1012.3 hPa 4.0 m/s 63.8 mm
14:00 22.2° 1013.0 hPa 3.7 m/s 64.0 mm 22.2° 1013.0 hPa 3.7 m/s 64.0 mm
17:00 18.4° 1013.7 hPa 1.9 m/s 64.7 mm 18.4° 1013.7 hPa 1.9 m/s 64.7 mm
20:00 16.9° 1014.6 hPa 1.2 m/s 65.6 mm 16.9° 1014.6 hPa 1.2 m/s 65.6 mm
23:00 16.1° 1016.3 hPa 1.4 m/s 66.6 mm 16.1° 1016.3 hPa 1.4 m/s 66.6 mm
 06:06     20:59    Daglengte: 14:53 Zondag 01 Aug
02:00 15.3° 1016.8 hPa 1.6 m/s 66.7 mm 15.3° 1016.8 hPa 1.6 m/s 66.7 mm
05:00 14.1° 1017.2 hPa 1.7 m/s 66.8 mm 14.1° 1017.2 hPa 1.7 m/s 66.8 mm
08:00 15.5° 1017.7 hPa 0.6 m/s 66.8 mm 15.5° 1017.7 hPa 0.6 m/s 66.8 mm
14:00 20.7° 1016.9 hPa 2.3 m/s 67.0 mm 20.7° 1016.9 hPa 2.3 m/s 67.0 mm
20:00 17.9° 1017.9 hPa 2.5 m/s 67.0 mm 17.9° 1017.9 hPa 2.5 m/s 67.0 mm
 06:07     20:57    Daglengte: 14:50 Maandag 02 Aug
02:00 13.5° 1020.7 hPa 1.1 m/s 67.5 mm 13.5° 1020.7 hPa 1.1 m/s 67.5 mm
08:00 14.5° 1021.3 hPa 0.7 m/s 67.6 mm 14.5° 1021.3 hPa 0.7 m/s 67.6 mm
14:00 22.6° 1019.3 hPa 2.3 m/s 67.7 mm 22.6° 1019.3 hPa 2.3 m/s 67.7 mm
20:00 18.1° 1019.0 hPa 1.1 m/s 67.7 mm 18.1° 1019.0 hPa 1.1 m/s 67.7 mm
 06:09     20:56    Daglengte: 14:47 Dinsdag 03 Aug
02:00 12.5° 1020.3 hPa 0.6 m/s 67.7 mm 12.5° 1020.3 hPa 0.6 m/s 67.7 mm
14:00 23.0° 1015.7 hPa 2.1 m/s 67.7 mm 23.0° 1015.7 hPa 2.1 m/s 67.7 mm
20:00 17.2° 1015.0 hPa 1.7 m/s 68.5 mm 17.2° 1015.0 hPa 1.7 m/s 68.5 mm
 06:10     20:55    Daglengte: 14:45 Woensdag 04 Aug
02:00 12.4° 1015.4 hPa 0.9 m/s 1.4 mm
08:00 13.2° 1015.2 hPa 0.8 m/s 1.0 mm
14:00 19.8° 1014.2 hPa 1.8 m/s 0.8 mm
20:00 17.2° 1014.8 hPa 0.9 m/s 0.7 mm
 06:11     20:53    Daglengte: 14:42 Donderdag 05 Aug
02:00 12.6° 1016.6 hPa 0.7 m/s 0.4 mm
08:00 13.7° 1016.3 hPa 0.6 m/s 0.4 mm
14:00 21.1° 1015.1 hPa 1.9 m/s 1.0 mm
20:00 17.6° 1015.8 hPa 0.8 m/s 1.4 mm
 06:12     20:52    Daglengte: 14:40 Vrijdag 06 Aug
02:00 13.4° 1017.1 hPa 0.6 m/s 0.7 mm
08:00 14.1° 1016.9 hPa 0.8 m/s 0.4 mm
14:00 20.8° 1015.7 hPa 1.9 m/s 1.5 mm
20:00 17.7° 1016.0 hPa 1.0 m/s 2.6 mm
 06:14     20:50    Daglengte: 14:36 Zaterdag 07 Aug
02:00 13.4° 1017.4 hPa 0.4 m/s 1.8 mm
08:00 13.9° 1017.3 hPa 0.8 m/s 1.9 mm
14:00 20.2° 1016.2 hPa 1.6 m/s 2.3 mm
20:00 17.4° 1016.7 hPa 0.7 m/s 2.0 mm
 06:15     20:48    Daglengte: 14:33 Zondag 08 Aug
02:00 13.3° 1018.2 hPa 0.9 m/s 0.8 mm
08:00 14.0° 1018.1 hPa 0.9 m/s 0.7 mm
14:00 22.1° 1016.9 hPa 1.6 m/s 0.8 mm
20:00 18.4° 1017.4 hPa 0.8 m/s 1.0 mm
 06:16     20:47    Daglengte: 14:31 Maandag 09 Aug
02:00 14.0° 1018.7 hPa 0.8 m/s 1.3 mm
08:00 14.8° 1018.6 hPa 0.7 m/s 0.5 mm
FMI Hirlam - 7.5 km EWN WRFDA - 12 km DWD ICON - 7 km GFS - 25 km Basiskaart






























































Updatetijd (Europe/Amsterdam) Resolutie Lengte Stap
FMI Hirlam 02:00, 08:00, 14:00, 20:00 7.5 km 49h 1h
EWN WRFDA 22:15, 04:15, 10:15, 16:15 12 km 73h 1h
DWD ICON 23:45, 05:45, 11:45, 17:45 7 km 75h 1h
GFS 02:15, 08:15, 14:15, 20:15 25 km 237h 3h
30+ mm
25-30 mm
20-25 mm
15-20 mm
10-15 mm
6-10 mm
4-6 mm
2-4 mm
1-2 mm
0.5-1 mm
0.2-0.5 mm
0.1-0.2 mm
30+ mm
25-30 mm
20-25 mm
15-20 mm
10-15 mm
6-10 mm
4-6 mm
2-4 mm
1-2 mm
0.5-1 mm
0.2-0.5 mm
0.1-0.2 mm
Sneeuwval
Natte sneeuw
Hagel
Vorst
30+ mm
25-30 mm
20-25 mm
15-20 mm
10-15 mm
6-10 mm
4-6 mm
2-4 mm
1-2 mm
0.5-1 mm
0.2-0.5 mm
0.1-0.2 mm
Sneeuwval
Natte sneeuw
Hagel
Vorst
Onweer
50 mm
40 mm
30 mm
26 mm
22 mm
18 mm
14 mm
10 mm
9 mm
8 mm
7 mm
6 mm
5 mm
4.5 mm
4 mm
3.5 mm
3 mm
2.5 mm
2 mm
1.5 mm
1 mm
0.8 mm
0.6 mm
0.4 mm
0.2 mm
0.05 mm
35°
30°
25°
20°
15°
10°
-5°
-10°
-15°
-20°
-25°
-30°
-35°
33> m/s
29 m/s
25 m/s
21 m/s
17 m/s
14 m/s
11 m/s
8 m/s
5 m/s
3 m/s
0 m/s
2600 J/kg
2400 J/kg
2200 J/kg
2000 J/kg
1800 J/kg
1600 J/kg
1400 J/kg
1200 J/kg
1000 J/kg
800 J/kg
600 J/kg
400 J/kg
200 J/kg
70 dBZ
65 dBZ
60 dBZ
55 dBZ
50 dBZ
45 dBZ
40 dBZ
35 dBZ
30 dBZ
25 dBZ
20 dBZ
15 dBZ
10 dBZ
5 dBZ
-1 K
-2 K
-3 K
-4 K
-5 K
-6 K
-7 K
-8 K
-9 K
950 m²/s²
900 m²/s²
850 m²/s²
800 m²/s²
750 m²/s²
700 m²/s²
650 m²/s²
600 m²/s²
550 m²/s²
500 m²/s²
450 m²/s²
400 m²/s²
350 m²/s²
300 m²/s²
250 m²/s²
200 m²/s²
150 m²/s²
100 m²/s²
46 m/s
44 m/s
42 m/s
40 m/s
38 m/s
36 m/s
34 m/s
32 m/s
30 m/s
28 m/s
26 m/s
24 m/s
22 m/s
20 m/s
16 m/s
12 m/s
8 m/s
4 m/s
30 m/s
28 m/s
26 m/s
24 m/s
22 m/s
20 m/s
18 m/s
16 m/s
14 m/s
12 m/s
10 m/s
8 m/s
6 m/s
4 m/s